Regional Weather Roundup
Issued by NWS

Home | Current Version | Previous Version | Text Only | Print | Product List | Glossary On
Versions: 1 2 3 4 5 6 7 8 9 10 11 12 13 14 15 16 17 18 19 20 21 22 23 24 25 26 27 28 29 30 31 32 33 34 35 36 37 38 39 40 41 42 43 44 45 46 47 48 49 50
000
ASUS43 KDTX 281201
RWRMI
MICHIGAN HOURLY REGIONAL WEATHER ROUNDUP
NATIONAL WEATHER SERVICE DETROIT/PONTIAC MI
700 AM EST SAT FEB 28 2015

NOTE: "FAIR" INDICATES FEW OR NO CLOUDS BELOW 12,000 FEET WITH NO
SIGNIFICANT WEATHER AND/OR OBSTRUCTION TO VISIBILITY.

MIZ047>049-052>055-059>063-066>070-074>076-081>083-281300-
SOUTHEAST LOWER MICHIGAN

CITY           SKY/WX    TMP DP  RH WIND       PRES   REMARKS
ADRIAN         PTCLDY   -10 -16  74 CALM      30.72R
6HR MIN TEMP: -10; 6HR MAX TEMP:   0;

ALMA           PTCLDY     0  -4  84 S3        30.68R
ANN ARBOR      FAIR     -14 -19  79 W3        30.71R
BAD AXE        CLEAR      2  -3  80 SW6       30.67S WCI  -9
CARO           CLEAR     -3  -7  82 CALM      30.68R
DETROIT CITY   PTCLDY     3  -4  72 CALM      30.72S
6HR MIN TEMP:   2; 6HR MAX TEMP:  11;

DETROIT        FAIR      -1  -6  79 S3        30.74R
6HR MIN TEMP:  -1; 6HR MAX TEMP:   5;

FLINT          PTCLDY    -1  -9  68 SW3       30.69R
6HR MIN TEMP:  -2; 6HR MAX TEMP:   8;

GROSSE ILE     PTCLDY    -2  -8  78 CALM      30.73R
HILLSDALE      PTCLDY    -4  -9  79 CALM      30.66R
6HR MIN TEMP:  -6; 6HR MAX TEMP:   4;

HOWELL         PTCLDY     1  -5  76 S3        30.68R
6HR MIN TEMP:   1; 6HR MAX TEMP:   5;


CITY           SKY/WX    TMP DP  RH WIND       PRES   REMARKS
JACKSON        PTCLDY    -7 -12  79 CALM      30.68R
6HR MIN TEMP:  -8; 6HR MAX TEMP:   2;

LAMBERTVILLE   FAIR      -4  -8  84 CALM      30.73S
LANSING        PTCLDY     2  -5  72 S3        30.69R
6HR MIN TEMP:   1; 6HR MAX TEMP:   6;

LAPEER         FAIR     -12 -17  78 CALM      30.69R
MASON          PTCLDY    -7 -11  83 S3        30.68R
MONROE         PTCLDY    -6  -9  84 CALM      30.72R
MT. CLEMENS    PTCLDY    -4  -9  80 CALM      30.70R
6HR MIN TEMP:  -6; 6HR MAX TEMP:   9;

PONTIAC        PTCLDY    -6 -12  75 CALM      30.67R
6HR MIN TEMP:  -6; 6HR MAX TEMP:   4;

PORT HOPE        N/A      5  -2  72 SW8       30.66R WCI  -8
6HR MIN TEMP:   3; 6HR MAX TEMP:   8;

PORT HURON     PTCLDY   -15 -20  76 CALM      30.72R
TRI CITIES     MOCLDY     4  -3  73 SW6       30.68R WCI  -7
6HR MIN TEMP:   4; 6HR MAX TEMP:   8;

TROY           CLEAR      4  -2  75 CALM      30.73R
SAGINAW HB     CLEAR      5  -2  72 SW7       30.69R WCI  -7
$$
MIZ043>046-050>051-056>058-064>065-071>073-077>080-281300-
SOUTHWEST LOWER MICHIGAN

CITY           SKY/WX    TMP DP  RH WIND       PRES   REMARKS
BATTLE CREEK   PTCLDY    -6 -13  71 S5        30.68R WCI -17
6HR MIN TEMP:  -8; 6HR MAX TEMP:   5;

BENTON HARBOR  PTCLDY    -6  -9  86 CALM      30.70R
6HR MIN TEMP:  -9; 6HR MAX TEMP:   1;

BIG RAPIDS     FLURRIES  -6 -10  86 CALM      30.62R
6HR MIN TEMP:  -8; 6HR MAX TEMP:  -1;

COLDWATER      FAIR     -13 -19  75 CALM      30.68S
6HR MIN TEMP: -13; 6HR MAX TEMP:  -2;

FREMONT        CLOUDY     2  -2  82 CALM      30.64R
HOLLAND        CLEAR      0  -5  79 S3        30.69R
6HR MIN TEMP:  -1; 6HR MAX TEMP:   5;

GRAND RAPIDS   PTCLDY    -2  -7  79 S6        30.67R WCI -14
6HR MIN TEMP:  -2; 6HR MAX TEMP:   7;

IONIA          FAIR       2  -4  76 SW5       30.67R WCI  -8
KALAMAZOO      PTCLDY    -3  -7  82 S6        30.69R WCI -15
6HR MIN TEMP:  -8; 6HR MAX TEMP:   3;

LUDINGTON      MOCLDY    16   6  65 W6        30.64R WCI   7
MARSHALL       FAIR     -16 -20  80 CALM      30.68R
MOUNT PLEASANT FLURRIES   7   2  81 S5        30.65R WCI  -2
6HR MIN TEMP:   4; 6HR MAX TEMP:   8;

MUSKEGON       PTCLDY    12   4  70 W3        30.67R
6HR MIN TEMP:  12; 6HR MAX TEMP:  16;

SOUTH HAVEN    PTCLDY    -4  -8  82 S3        30.69R
$$
MIZ016>042-281300-
NORTHERN LOWER MICHIGAN

CITY           SKY/WX    TMP DP  RH WIND       PRES   REMARKS
ALPENA         CLEAR      4  -1  80 SW7       30.60R WCI  -8
6HR MIN TEMP:   2; 6HR MAX TEMP:   5;

BEAVER ISLAND  CLEAR      9   3  78 SW9       30.56R WCI  -4
6HR MIN TEMP:   4; 6HR MAX TEMP:  13;

BELLAIRE       CLEAR     -8 -13  78 CALM      30.62R
6HR MIN TEMP:  -9; 6HR MAX TEMP:  10;

CADILLAC       PTCLDY   -15 -22  72 CALM      30.55R
CHARLEVOIX     CLEAR      2  -2  83 CALM      30.61R
FRANKFORT      CLEAR     15   6  68 W6        30.61R WCI   6
GAYLORD        CLEAR     -2  -5  87 S5        30.53R WCI -12
6HR MIN TEMP:  -4; 6HR MAX TEMP:   7;

GRAYLING       PTCLDY   -18 -25  71 CALM      30.57R
HARBOR SPRINGS CLEAR      3  -3  79 CALM      30.57R
HOUGHTON LAKE  PTCLDY    -4  -7  87 CALM      30.59R
6HR MIN TEMP:  -4; 6HR MAX TEMP:   5;

MANISTEE       CLEAR     -9 -17  70 E3        30.63R
OSCODA         CLEAR     -1  -5  84 SW9       30.64R WCI -17
PELLSTON       CLEAR     -4  -8  83 S3        30.57R
6HR MIN TEMP:  -9; 6HR MAX TEMP:  11;

ROGERS CITY    CLEAR      4   1  86 SW8       30.59R WCI  -9
TRAVERSE CITY  PTCLDY    -6 -11  79 CALM      30.60R
6HR MIN TEMP:  -6; 6HR MAX TEMP:   6;

$$
MIZ007>008-015-281300-
EASTERN UPPER MICHIGAN

CITY           SKY/WX    TMP DP  RH WIND       PRES   REMARKS
KINROSS        PTCLDY     1   0  92 SW6       30.52R WCI -10
6HR MIN TEMP:   1; 6HR MAX TEMP:   3;

MACKINAC ISLAN PTCLDY     8   2  79 SW9       30.54R WCI  -6
6HR MIN TEMP:   7; 6HR MAX TEMP:  11;

NEWBERRY       PTCLDY    -1  -6  79 SW10      30.51R WCI -17
S. S. MARIE    MOCLDY    -9 -15  75 E3        30.53R
6HR MIN TEMP:  -9; 6HR MAX TEMP:  -1;

MUNISING         N/A     -1 -10  65 S9        30.53R WCI -16
6HR MIN TEMP:  -3; 6HR MAX TEMP:   7;

$$
MIZ004>006-011>014-085-281300-
CENTRAL UPPER MICHIGAN

CITY           SKY/WX    TMP DP  RH WIND       PRES   REMARKS
MANISTIQUE     PTCLDY     4  -4  70 W5        30.54R WCI  -5
6HR MIN TEMP:   3; 6HR MAX TEMP:  11;

ESCANABA       PTCLDY    -2  -6  84 CALM      30.57S
6HR MIN TEMP:  -4; 6HR MAX TEMP:   9;

MENOMINEE      CLEAR      1  -6  71 SW5       30.58S WCI  -8
6HR MIN TEMP:   1; 6HR MAX TEMP:   7;

SAWYER-GWINN   CLEAR     -6 -11  77 SW6       30.47R WCI -18
$$
MIZ001>003-009>011-084-281300-
WESTERN UPPER MICHIGAN

CITY           SKY/WX    TMP DP  RH WIND       PRES   REMARKS
IRON MOUNTAIN  PTCLDY    -4 -10  75 CALM      30.49R
6HR MIN TEMP:  -5; 6HR MAX TEMP:   2;

HOUGHTON       CLEAR      5  -5  63 SW7       30.43R WCI  -7
6HR MIN TEMP:   5; 6HR MAX TEMP:  10;

COPPER HARBOR    N/A     11   0  61 VRB5      30.45R WCI   3
6HR MIN TEMP:  11; 6HR MAX TEMP:  16;

IRONWOOD       PTCLDY     1  -6  71 SW5       30.44S WCI  -8
6HR MIN TEMP:   1; 6HR MAX TEMP:   7;

$$

ABBREVIATIONS USED IN REMARKS
   TC - TEMPERATURE IN CELSIUS
  WCI - WIND CHILL INDEX
   HX - HEAT INDEX
  VSB - VISIBILITY




USA.gov is the U.S. government's official web portal to all federal, state and local government web resources and services.